Find Starlink 32022

NORAD ID: 60149 Int'l Des: 2024-120 Owner: SPXS Country: US Constellation: starlink operational
LEOCIRCULAR

当前视图

正在加载3D地球...

About Starlink 32022

Starlink 32022 (NORAD 60149) is a starlink constellation satellite (v2 mini) launched Jun 27, 2024 by SPXS of US. It operates in LEO, CIRCULAR orbit with a mass of 730.00 kg.

即将过境

Passes for default location (London). Set your location on the main map for personalized predictions.

高度历史

Loading altitude history...

两行轨道根数

1 60149U 24120Q 26262.29107005 .00002879 00000-0 96360-4 0 9995
2 60149 53.1594 137.3867 0001209 89.4194 270.6947 15.34382595126145
Epoch: Sep 19, 2026 • Age: 33 hours

当前状态

高度 464.0 km
远地点 / 近地点 N/A
速度 7.64 km/s
星下点 -1.79°S, 106.96°W
发射日期 Jun 27, 2024
运行时间 2.2 years
类型 internet

技术详情

分类 Payload
质量 730.00 kg
干质量 700.00 kg
长度 0.30 m
跨度 29.00 m
形状 ? Box + pan
制造商 SPXS
平台类型 Starlink V2M
阶段状态 In Orbit
所有者/国家 SPXS/US

Most Searched